This is the latest recevied weather packets stored in our database for station/object ON5MM-5. If no packets are shown the sender has not sent any weather packets the latest 10 day(s).
| Time | Temp. | Humidity | Pressure | Rain* | Wind** | Luminosity | Snow |
|---|---|---|---|---|---|---|---|
| 1777704902 | 17.78° C | 48% | 1021.3 hPa | 0 mm | 1.79 m/s, ° | - | - |
| 1777704602 | 17.78° C | 50% | 1021.5 hPa | 0 mm | 2.24 m/s, ° | - | - |
| 1777704302 | 17.22° C | 50% | 1021.5 hPa | 0 mm | 1.79 m/s, ° | - | - |
| 1777704002 | 17.22° C | 50% | 1021.5 hPa | 0 mm | 1.34 m/s, ° | - | - |
| 1777703702 | 16.67° C | 50% | 1021.5 hPa | 0 mm | 1.79 m/s, ° | - | - |
| 1777703402 | 16.67° C | 50% | 1021.5 hPa | 0 mm | 1.79 m/s, ° | - | - |
| 1777703102 | 16.11° C | 50% | 1021.4 hPa | 0 mm | 1.34 m/s, ° | - | - |
| 1777702802 | 16.11° C | 49% | 1021.5 hPa | 0 mm | 1.79 m/s, ° | - | - |
| 1777702503 | 16.11° C | 49% | 1021.5 hPa | 0 mm | 1.79 m/s, ° | - | - |
| 1777702202 | 15.56° C | 48% | 1021.6 hPa | 0 mm | 2.24 m/s, ° | - | - |
| 1777701903 | 15.56° C | 47% | 1021.5 hPa | 0 mm | 1.79 m/s, ° | - | - |
| 1777701602 | 15.56° C | 47% | 1021.5 hPa | 0 mm | 1.79 m/s, ° | - | - |
| 1777701302 | 15.56° C | 46% | 1021.5 hPa | 0 mm | 2.24 m/s, ° | - | - |
| 1777701003 | 15° C | 46% | 1021.5 hPa | 0 mm | 2.24 m/s, ° | - | - |
| 1777700702 | 15° C | 46% | 1021.4 hPa | 0 mm | 2.24 m/s, ° | - | - |
| 1777700403 | 15° C | 46% | 1021.4 hPa | 0 mm | 2.24 m/s, ° | - | - |
| 1777700103 | 15° C | 46% | 1021.4 hPa | 0 mm | 1.79 m/s, ° | - | - |
| 1777699802 | 15° C | 44% | 1021.4 hPa | 0 mm | 2.68 m/s, ° | - | - |
| 1777699502 | 15° C | 44% | 1021.4 hPa | 0 mm | 2.24 m/s, ° | - | - |
| 1777699202 | 15° C | 45% | 1021.4 hPa | 0 mm | 2.24 m/s, ° | - | - |
| 1777698902 | 14.44° C | 46% | 1021.5 hPa | 0 mm | 2.24 m/s, ° | - | - |
| 1777698603 | 14.44° C | 45% | 1021.5 hPa | 0 mm | 2.68 m/s, ° | - | - |
| 1777698302 | 13.89° C | 47% | 1021.5 hPa | 0 mm | 1.79 m/s, ° | - | - |
| 1777698003 | 13.33° C | 47% | 1021.5 hPa | 0 mm | 1.79 m/s, ° | - | - |
| 1777697702 | 13.89° C | 45% | 1021.4 hPa | 0 mm | 1.34 m/s, ° | - | - |
* Rain latest hour (hover to see other rain measurements)
** Current wind speed in m/s (hover to see current wind gust speed)